Tracking 33744 objects as of 12-Apr-2026
HD Live streaming from Space Station
objects crossing your sky now

ONEWEB-0044

Track ONEWEB-0044 now!
10-day predictions
ONEWEB-0044 is classified as:


NORAD ID: 45150
Int'l Code: 2020-008V
Perigee: 1,227.4 km
Apogee: 1,230.4 km
Inclination: 87.9 °
Period: 109.9 minutes
Semi major axis: 7599 km
RCS: Unknown
Launch date: February 6, 2020
Source: United Kingdom (UK)
Launch site: TYURATAM MISSILE AND SPACE COMPLEX (TTMTR)
Your satellite tracking list
Your tracking list is empty




NASA's NSSDC Master Catalog

Two Line Element Set (TLE):
1 45150U 20008V   26102.25923246 -.00000583  00000-0 -17056-2 0  9998
2 45150  87.8837  49.3798 0001960  85.8768 274.2584 13.10371683299843
Source of the keplerian elements: AFSPC